Location: Stephenson Shoal
(50.8833°N, 0.8833°E)
Time: 23:35:56
(UTC+00:00)

Daily predictions for brighter satellites

Satellite Brightness Start Highest point End
(mag) Time Altitude Azimuth Time Altitude Azimuth Time Altitude Azimuth
COSMO-SKYMED 1 3.7 17:15:38 10° NE 17:19:12 24° E 17:22:44 10° SSE
CZ-2C R/B 3.9 17:14:14 10° S 17:20:02 67° WSW 17:25:44 10° NNW
deb Chang Zheng 4 3.7 17:16:29 10° SE 17:20:34 51° ENE 17:24:40 10° N
CZ-4B DEB 4.3 17:15:47 10° SSE 17:21:20 87° ENE 17:26:57 10° NNW
CZ-4B R/B 3.4 17:15:56 10° SE 17:21:25 53° ENE 17:26:55 10° N
Lacrosse 4 Rocket 2.5 17:19:07 10° NNW 17:22:51 28° NE 17:26:38 10° ESE
PSLV R/B 3.8 17:19:01 10° SSE 17:23:02 80° ENE 17:27:01 10° NNW
Cosmos 1269 Rocket 4.1 17:18:56 10° NNW 17:24:12 60° ENE 17:29:26 10° SE
Cosmos 1125 Rocket 3.5 17:19:56 10° SSW 17:25:11 79° ESE 17:30:26 10° NNE
Cosmos 2298 Rocket 4.1 17:20:23 10° SSW 17:25:42 88° WNW 17:31:03 10° NNE
ARGOS 3.7 17:21:10 10° SE 17:26:07 39° ENE 17:31:07 10° N
Cosmos 1727 Rocket 4.1 17:20:25 10° N 17:26:41 86° W 17:32:51 10° S
Cosmos 1892 Rocket 3.6 17:22:26 10° N 17:26:53 59° ENE 17:31:15 10° SSE
Cosmos 2263 Rocket 2.1 17:22:14 10° NNW 17:27:50 78° ENE 17:33:24 10° SE
AQUARIUS 4.4 17:24:03 10° S 17:28:33 79° WSW 17:33:04 10° NNW
PAYLOAD B 4.2 17:25:14 10° SSE 17:30:46 83° ENE 17:36:22 10° NNW
Cosmos 2227 4.2 17:26:19 10° NNW 17:32:07 69° ENE 17:37:51 10° SE
ATLAS 3B R/B 2.9 17:26:25 10° SW 17:33:00 72° NW 17:39:57 10° NE
Cosmos 1980 Rocket 2.2 17:27:37 10° SSW 17:33:15 71° ESE 17:38:56 10° NNE
Cosmos 2366 rocket 4.5 17:27:07 10° SSW 17:33:17 68° WNW 17:39:33 10° N
Cosmos 2369 3.8 17:27:56 10° SSW 17:33:37 88° ESE 17:39:22 10° NNE
SME Rocket 3.6 17:30:21 10° NNE 17:34:24 74° WNW 17:39:55 10° SSW
Cosmos 1328 4.2 17:33:50 10° N 17:37:42 43° ENE 17:41:33 10° SSE
Cosmos 2251 Rocket 4.4 17:37:36 10° N 17:42:14 30° NE 17:46:48 10° ESE
Cosmos 1758 4.2 17:38:43 10° SSW 17:42:36 53° WNW 17:46:31 10° N
CZ-2C R/B 3.2 17:37:59 10° NNE 17:43:13 39° E 17:48:21 10° SSE
CZ-2D R/B 3.3 17:40:58 10° SSE 17:44:48 88° WSW 17:48:43 10° NNW
Meteor 1-21 Rocket 4.5 17:39:32 10° NNW 17:45:26 84° W 17:51:22 10° S
Cosmos 1892 4.2 17:43:51 10° NNE 17:46:24 17° ENE 17:48:05 13° E
USA 267 4.1 17:40:52 10° SE 17:47:14 53° SW 17:53:38 10° WNW
Cosmos 1953 2.3 17:43:35 10° S 17:47:38 76° E 17:51:43 10° NNE
Cosmos 1697 Rocket 3.5 17:43:42 10° SW 17:49:15 55° NW 17:54:49 10° NNE
Cosmos 1626 Rocket 4.0 17:47:13 10° N 17:51:17 38° ENE 17:55:19 10° SE
CENTAUR R/B 4.0 17:45:40 10° WNW 17:51:49 32° N 17:58:56 10° ENE
Cosmos 1908 3.5 17:54:30 10° SSW 17:58:22 73° WNW 18:02:15 10° N
Meteor 1-4 Rocket 3.8 17:56:04 10° SE 17:58:37 19° E 17:59:19 18° ENE
NOSS 3-1 (C) 3.9 17:55:11 10° S 17:59:54 34° ESE 18:04:56 12° NE
Cosmos 1605 Rocket 4.5 17:54:26 10° SSE 18:00:07 37° E 18:05:53 10° NNE
Cosmos 1844 Rocket 3.2 17:55:50 10° NNW 18:01:03 38° NE 18:05:24 14° ESE
NOSS 2-3 (C) 4.4 18:03:59 10° S 18:07:31 29° ESE 18:09:38 20° ENE
SKYMED 2 3.5 18:03:10 10° NNE 18:07:31 67° ESE 18:11:50 10° S
CZ-4 R/B 1.7 18:04:23 10° SE 18:08:13 45° ENE 18:12:10 10° N
H-2A R/B 2.5 18:05:54 10° SSE 18:10:07 58° ENE 18:14:11 10° N
BREEZE-M DEB (TANK) 3.5 18:05:41 10° W 18:13:04 68° SSW 18:14:53 23° ESE
Cosmos 2278 3.9 18:09:20 10° SSW 18:15:01 78° WNW 18:20:46 10° NNE
CZ-4C R/B 2.8 18:12:57 10° NNE 18:16:20 58° E 18:19:35 10° S
YAOGAN 1 2.6 18:12:09 10° SSE 18:16:21 56° ENE 18:20:37 10° N
Cosmos 1455 Rocket 3.2 18:12:51 10° SSW 18:17:17 78° W 18:21:46 10° N
H-2A R/B 2.9 18:14:37 10° NE 18:18:08 26° E 18:21:40 10° SSE
Cosmos 1821 Rocket 4.5 18:12:40 10° SSW 18:19:01 67° WNW 18:25:22 10° N
Cosmos 2278 Rocket 3.9 18:15:36 10° N 18:19:12 17° NNE 18:21:01 15° NE
Spot 2 3.9 18:18:57 10° SSE 18:23:06 83° ENE 18:27:32 10° NNW
Meteor 2-10 Rocket 3.9 18:20:00 10° SSE 18:25:14 44° E 18:30:18 10° NNE
Cosmos 1408 3.1 18:22:31 10° N 18:25:52 34° ENE 18:26:02 34° E
IRAS Rocket 4.3 18:21:05 10° NNE 18:26:33 54° ESE 18:31:56 10° S
Cosmos 839 Rocket 4.3 18:20:09 10° NW 18:28:11 88° SW 18:34:40 10° SE
SL-16 R/B 2.2 18:23:01 10° S 18:28:33 57° ESE 18:34:07 10° NE
Cosmos 614 Rocket 3.9 18:24:23 10° NNW 18:29:26 63° ENE 18:33:26 16° SE
Iridium 4 Rocket 3.4 18:26:00 10° N 18:30:33 76° W 18:35:29 10° S
Cosmos 1544 Rocket 3.5 18:26:56 10° S 18:31:23 88° ESE 18:35:53 10° N
Cosmos 1300 2.6 18:28:48 10° S 18:32:36 88° W 18:36:27 10° N
Cosmos 371 Rocket 3.2 18:28:02 10° SSW 18:32:53 78° ESE 18:37:48 10° NNE
ATLAS 5 CENTAUR R/B 2.0 18:29:17 10° WSW 18:33:12 57° NW 18:36:43 16° NE
SL-8 R/B 3.9 18:28:34 10° WSW 18:33:15 56° SSE 18:35:12 32° ESE
Cosmos 1934 Rocket 3.9 18:27:25 10° S 18:33:32 89° W 18:39:38 10° N
OBJECT-B 3.3 18:36:27 11° NNE 18:36:27 11° NNE 18:36:35 10° NNE
Okean O Rocket 2.7 18:31:24 10° S 18:35:35 46° W 18:39:49 10° NNW
Feng Yun 1-1 Rocket 4.4 18:31:07 10° SSE 18:36:42 80° WSW 18:42:29 10° NNW
X-37B 2.3 18:34:32 10° WSW 18:36:47 20° SSW 18:37:16 19° S
Cosmos 1825 3.6 18:34:48 10° N 18:36:45 22° NE 18:36:45 22° NE
Landsat 5 4.0 18:36:56 10° N 18:41:17 66° WNW 18:45:43 10° SSW
Cosmos 2322 Rocket 2.2 18:36:45 10° S 18:42:12 55° ESE 18:47:06 13° NE
DMSP B5D2-2 4.1 18:39:01 10° NNE 18:44:11 53° E 18:49:18 10° S
H-2A R/B 3.7 18:40:39 10° SSW 18:45:38 37° W 18:50:42 10° NNW
Tiangong 3.4 18:43:43 10° SW 18:45:39 16° S 18:45:39 16° S
Cosmos 1844 3.7 18:41:14 10° NNW 18:47:01 64° NE 18:49:50 30° SE
Cosmos 1932 4.4 18:41:27 10° NW 18:47:42 75° NE 18:51:03 29° SE
Cosmos 2360 Rocket 2.5 18:48:03 10° S 18:53:19 43° ESE 18:54:25 38° E
Cosmos 1602 Rocket 3.6 18:49:09 10° NNW 18:53:32 76° W 18:57:50 10° S
USA 215 3.6 18:49:59 23° ENE 18:54:15 62° NNW 19:00:41 10° W
SL-08 RB Rocket 4.3 18:50:02 10° S 18:54:31 58° W 18:59:06 10° NNW
Okean-O 2.5 18:52:50 28° SSE 18:55:09 77° ENE 18:59:37 10° NNW
COSMO-SKYMED 1 3.8 18:51:24 10° N 18:55:33 43° WNW 18:59:40 10° SW
NOSS 2-3 (E) 3.4 18:53:31 10° SW 18:57:33 72° SE 18:58:36 50° ENE
NOSS 8 (E) 4.5 18:55:01 10° SW 18:57:52 64° WSW 18:57:52 64° WSW
Lacrosse 4 Rocket 2.2 18:57:34 10° NW 19:01:45 52° WSW 19:04:08 24° S
USA 229 DEB 3.7 18:56:10 10° SSW 19:02:19 53° ESE 19:04:46 36° ENE
USA 229 3.7 18:56:18 10° SSW 19:02:26 52° ESE 19:04:49 36° ENE
Cosmos 44 3.8 19:02:13 10° SSW 19:06:59 46° SE 19:06:59 46° SE
Resurs 01 Rocket 3.9 19:09:59 13° NNE 19:09:59 13° NNE 19:10:38 10° NNE
In-Cosmos 22 Rocket 4.2 19:03:16 10° NNW 19:08:36 73° W 19:13:53 10° S
Cosmos 2344 4.3 19:00:40 10° NW 19:09:36 79° SW 19:20:14 16° SSE
Meteor 2-11 Rocket 4.4 19:04:35 10° S 19:10:37 59° E 19:16:39 10° NNE
MetOp-A 4.1 19:07:43 18° SSE 19:11:45 86° WSW 19:17:09 10° NNW
Cosmos 1825 Rocket 3.5 19:12:27 10° N 19:16:24 71° NNE 19:16:24 71° NNE
Ariane Rocket 4.2 19:18:33 27° NNE 19:18:33 27° NNE 19:21:31 10° N
Cosmos 1980 Rocket 4.0 19:12:55 10° WSW 19:17:48 28° NW 19:22:43 10° NNE
CSL-04 Debris 4.2 19:15:49 24° S 19:19:14 80° WSW 19:24:42 10° NNW
Cosmos 2100 Rocket 4.0 19:14:34 10° S 19:20:43 58° E 19:26:58 10° NNE
Orbus 7S? 4.3 19:13:01 10° WNW 19:21:30 61° SW 19:22:28 49° S
BREEZE-M R/B 3.5 19:18:25 10° W 19:21:41 42° SSW 19:22:09 40° S
Cosmos 1892 3.6 19:18:41 10° NNW 19:22:20 47° W 19:23:04 41° SW
Cosmos 1758 Rocket 4.0 19:18:24 10° NNW 19:22:40 58° W 19:24:20 34° SSW
CZ-2C R/B 4.0 19:18:18 10° N 19:23:31 41° WNW 19:28:40 10° SW
Cosmos 1459 Rocket 4.0 19:24:21 53° ENE 19:24:21 53° ENE 19:29:39 10° NNE
NOSS 3-1 (A) 3.1 19:19:17 10° SSW 19:24:37 69° SE 19:25:17 63° E
Cosmos 2251 Rocket 4.2 19:19:41 10° NNW 19:24:48 53° WSW 19:27:54 23° S
ATLAS 3B R/B 4.0 19:18:49 10° W 19:24:50 33° NNW 19:29:23 17° NE
Cosmos 1943 Rocket 4.2 19:22:31 10° N 19:25:40 15° NNE 19:25:42 15° NNE
Cosmos 1953 Rocket 4.4 19:24:10 10° N 19:27:10 41° N 19:27:10 41° N
Cosmos 304 Rocket 4.2 19:25:37 10° SW 19:30:21 59° WNW 19:33:23 22° NNE
CSL-04 Rocket 3.9 19:29:57 29° S 19:32:52 70° WSW 19:38:26 10° NNW
Cosmos 407 Rocket 3.4 19:27:59 10° NNW 19:33:21 88° WSW 19:33:40 80° SSE
Meteor 1-4 Rocket 4.2 19:30:13 10° SW 19:33:23 32° WNW 19:33:34 32° WNW
Cosmos 2173 Rocket 3.8 19:36:02 69° ESE 19:36:11 69° E 19:42:28 10° NNE
Cosmos 1140 Rocket 3.4 19:34:28 10° NNW 19:39:37 82° W 19:39:37 82° W
Cosmos 2237 4.3 19:34:57 10° SW 19:40:40 75° WNW 19:43:12 35° NNE
Cosmos 2369 Rocket 4.4 19:40:14 10° N 19:42:23 12° NNE 19:42:30 12° NNE
NOSS 3-2 (A) 4.5 19:36:48 10° NW 19:43:25 43° NNE 19:44:30 41° NE
CZ-4 R/B 3.9 19:40:22 10° SW 19:43:26 21° W 19:46:35 10° NW
CENTAUR R/B 3.7 19:37:27 10° NW 19:44:32 41° NNE 19:46:12 38° NE
Cosmos 1844 Rocket 3.5 19:39:45 10° NW 19:45:04 46° WSW 19:47:05 32° SSW
NOSS 2-3 (D) 4.2 19:41:00 10° WSW 19:44:35 54° WNW 19:44:35 54° WNW
NOSS 3-1 (C) 3.7 19:44:53 10° WSW 19:50:19 60° NW 19:52:21 41° NNE
H-2A R/B 3.4 19:50:24 10° N 19:54:12 36° WNW 19:58:00 10° SW
BREEZE-M DEB (TANK) 4.4 19:49:19 10° W 19:57:27 60° WSW 19:57:27 60° WSW
Cosmos 2278 Rocket 3.1 19:59:04 10° NNW 20:02:52 39° N 20:02:52 39° N
BREEZE M DEB (TANK) 4.2 19:43:36 10° W 20:08:01 84° S 20:09:16 69° ESE
SL-16 R/B 3.7 20:07:53 10° WSW 20:12:59 33° NW 20:17:03 15° NNE
ATLAS 5 CENTAUR R/B 3.8 20:15:25 10° WNW 20:18:14 21° NNW 20:18:14 21° NNW
Cosmos 2322 Rocket 3.7 20:21:28 10° WSW 20:26:32 34° NW 20:28:57 24° N
USA 215 3.8 20:37:20 52° NNW 20:37:20 52° NNW 20:43:09 10° WNW
Cosmos 2360 Rocket 3.4 20:32:01 10° WSW 20:36:17 38° WNW 20:36:17 38° WNW
USA 229 DEB 4.4 20:47:01 10° WSW 20:52:15 47° WNW 20:52:15 47° WNW
USA 229 4.4 20:47:07 10° WSW 20:52:18 47° WNW 20:52:18 47° WNW
Cosmos 1943 Rocket 4.4 21:05:33 10° NNW 21:07:12 19° NNW 21:07:12 19° NNW
ATLAS 3B R/B 4.2 21:11:34 10° NW 21:16:37 29° N 21:16:37 29° N
CENTAUR R/B 3.9 21:28:15 10° NW 21:33:21 46° NW 21:33:21 46° NW
